Hourly Data Report for September 02, 2017

All times are specified in Local Standard Time (LST). Add 1 hour to adjust for Daylight Saving Time where and when it is observed.

WINNIPEG A CS
MANITOBA

49°55'00.000" N
97°14'58.000" W
238.70 m
502S001
71849
XWG

Download Data

Hourly Data (September 2017)
Hourly Data Report for September 2, 2017
Temp Definition
°C
Dew Point Temp Definition
°C
Rel Hum Definition
%
Wind Dir Definition
10's deg

Wind Spd Definition
km/h
Visibility Definition
km
Stn Press Definition
kPa
Hmdx Definition


Wind Chill Definition


Weather Definition


TIME
00:00 13.9 12.6 92 27 14   98.15     LegendNANA
01:00 12.8 11.9 94 26 13   98.15     LegendNANA
02:00 13.3 11.5 89 26 14   98.18     LegendNANA
03:00 11.7 9.8 88 26 14   98.20     LegendNANA
04:00 11.7 9.5 86 25 14   98.20     LegendNANA
05:00 10.6 8.6 88 26 14   98.22     LegendNANA
06:00 10.8 8.5 86 26 15   98.26     LegendNANA
07:00 12.5 9.5 82 27 17   98.30     LegendNANA
08:00 14.7 10.3 75 27 17   98.33     LegendNANA
09:00 18.8 10.8 60 28 22   98.33     LegendNANA
10:00 21.8 9.4 45 29 20   98.33     LegendNANA
11:00 23.5 9.0 40 28 25   98.33     LegendNANA
12:00 24.6 6.5 31 29 29   98.30     LegendNANA
13:00 25.8 4.6 25 30 29   98.28 25   LegendNANA
14:00 25.6 6.4 29 31 28   98.25 25   LegendNANA
15:00 25.6 5.3 27 29 29   98.24 25   LegendNANA
16:00 25.5 4.8 26 30 29   98.22 25   LegendNANA
17:00 24.9 5.6 29 30 19   98.21     LegendNANA
18:00 23.4 5.9 32 32 12   98.21     LegendNANA
19:00 19.2 8.3 49 31 3   98.18     LegendNANA
20:00 14.8 8.3 65 31 4   98.20     LegendNANA
21:00 14.0 8.3 68 22 3   98.21     LegendNANA
22:00 13.2 8.1 71 17 6   98.18     LegendNANA
23:00 13.1 8.9 76 18 10   98.17     LegendNANA

Notes on Data Quality.

Legend

  • E = Estimated
  • M = Missing
  • NA = Not Available
  • ‡ = Partner data that is not subject to review by the National Climate Archives
Date modified: